CST,Max TemperatureF,Mean TemperatureF,Min TemperatureF,Max Dew PointF,MeanDew PointF,Min DewpointF,Max Humidity, Mean Humidity, Min Humidity, Max Sea Level PressureIn, Mean Sea Level PressureIn, Min Sea Level PressureIn, Max VisibilityMiles, Mean VisibilityMiles, Min VisibilityMiles, Max Wind SpeedMPH, Mean Wind SpeedMPH, Max Gust SpeedMPH,PrecipitationIn, CloudCover, Events, WindDirDegrees
2012-12-1,33,27,21,34,26,21,100,99,93,29.77,29.72,29.60,10,6,0,15,6,38,0.00,7,Fog,283
2012-12-2,39,32,24,37,31,25,100,96,81,29.72,29.51,29.24,10,8,0,14,6,,0.00,3,Fog-Rain,166
2012-12-3,41,26,12,39,24,9,100,85,74,29.99,29.67,29.29,10,10,10,33,17,44,0.00,3,Rain,295
2012-12-4,21,14,6,18,13,5,100,91,85,30.20,30.12,30.00,10,10,10,15,7,18,0.02,4,Snow,117
2012-12-5,41,31,21,32,26,18,100,83,61,30.03,29.72,29.55,10,10,10,24,13,36,0.00,2,,205
2012-12-6,32,24,15,32,23,16,100,92,75,29.95,29.90,29.75,10,9,0,24,13,32,0.00,4,Fog,307
2012-12-7,15,12,8,16,11,7,100,94,85,30.00,29.94,29.83,10,7,0,16,7,16,0.77,7,Fog-Snow,83
2012-12-8,10,5,0,9,3,-4,100,88,78,30.21,29.91,29.77,10,9,1,20,11,28,0.44,6,Snow,47
2012-12-9,6,1,-4,1,-4,-9,92,82,72,30.36,30.22,29.90,10,10,10,14,7,16,0.00,2,Snow,264
2012-12-10,21,10,0,19,10,-4,93,85,68,29.89,29.69,29.61,10,10,10,18,9,28,0.08,5,Snow,277
2012-12-11,21,10,0,21,10,-2,100,90,79,29.76,29.66,29.47,10,9,2,21,12,26,0.47,6,Snow-Thunderstorm,129
2012-12-12,21,13,5,21,9,1,100,94,85,29.92,29.69,29.47,10,9,0,8,5,,0.00,7,Fog-Snow,60
2012-12-13,32,18,5,32,16,1,100,95,85,29.95,29.90,29.83,10,9,2,13,6,,0.20,8,Snow,167
2012-12-14,28,17,6,28,18,7,100,99,92,29.83,29.71,29.64,10,2,0,15,8,45,0.00,6,Fog,212
2012-12-15,24,15,6,25,18,5,100,99,92,29.77,29.73,29.66,10,8,0,18,7,25,0.00,6,Fog,300
2012-12-16,17,12,6,18,12,5,100,97,92,29.77,29.72,29.67,10,2,0,12,5,,0.00,8,Fog-Snow,154
2012-12-17,21,19,17,21,19,18,100,100,100,29.67,29.53,29.45,10,3,0,12,9,,0.00,8,Fog,167
2012-12-18,28,22,17,28,23,18,100,100,100,29.60,29.49,29.44,10,9,2,18,9,28,0.05,8,Snow,207
2012-12-19,19,8,-4,19,8,-9,100,94,78,30.04,29.87,29.61,10,9,0,18,12,26,3.36,5,Rain-Snow,297
2012-12-20,14,4,-7,12,-2,-13,100,87,77,30.06,30.04,30.02,10,10,0,9,2,,0.00,0,Fog-Snow,208
2012-12-21,24,10,-4,21,10,-8,100,91,80,30.05,29.97,29.93,10,10,10,16,4,21,0.00,0,,214
2012-12-22,10,5,0,7,1,-4,92,85,78,30.15,30.11,30.00,10,10,9,18,11,22,0.00,6,Rain-Snow,18
2012-12-23,5,2,0,3,0,-6,92,85,78,30.11,30.08,30.04,10,9,2,15,10,20,0.49,6,Snow,75
2012-12-24,3,-2,-7,-2,-6,-11,92,82,78,30.36,30.22,30.10,10,10,10,9,4,,0.09,5,Snow,360
2012-12-25,1,-4,-9,0,-6,-13,92,83,72,30.40,30.33,30.23,10,9,3,16,8,22,0.31,6,Snow,300
2012-12-26,1,-6,-14,0,-7,-20,92,86,77,30.22,30.10,30.02,10,10,1,12,5,,0.00,7,Snow,87
2012-12-27,8,0,-7,5,-1,-11,92,88,84,30.03,29.99,29.97,10,10,5,9,6,,0.04,6,Snow,139
2012-12-28,8,0,-9,5,0,-13,92,86,78,29.98,29.94,29.92,10,10,8,14,6,,0.03,4,Snow,265
2012-12-29,21,4,-13,18,5,-18,93,85,77,29.94,29.91,29.89,10,10,10,15,5,,0.00,2,,254
2012-12-30,23,10,-5,19,9,-9,100,88,78,30.09,29.96,29.88,10,10,10,23,10,32,0.25,7,Rain-Snow,300
2012-12-31,12,0,-11,10,-2,-17,100,87,77,30.12,30.08,30.04,10,7,0,10,4,,0.04,7,Fog-Snow,208